Time,TemperatureF,DewpointF,PressureIn,WindDirection,WindDirectionDegrees,WindSpeedMPH,WindSpeedGustMPH,Humidity,HourlyPrecipIn,Conditions,Clouds,dailyrainin,SolarRadiationWatts/m^2,SoftwareType,DateUTC
2014-12-19 00:01:00,30.5,26.5,30.28,West,269,2.0,7.0,85,0.00,,---,0.00,0.00,VWS V14.00,2014-12-19 05:01:00,
2014-12-19 00:06:00,30.5,26.5,30.28,SW,226,5.0,8.0,85,0.00,,---,0.00,0.00,VWS V14.00,2014-12-19 05:06:00,
2014-12-19 00:11:00,30.5,26.5,30.28,West,261,5.0,7.0,85,0.00,,---,0.00,0.00,VWS V14.00,2014-12-19 05:11:00,
2014-12-19 00:16:00,30.5,26.5,30.28,WSW,257,0.0,7.0,85,0.00,,---,0.00,0.00,VWS V14.00,2014-12-19 05:16:00,
2014-12-19 00:21:00,30.5,26.5,30.27,West,278,1.0,6.0,85,0.00,,---,0.00,0.00,VWS V14.00,2014-12-19 05:21:00,
2014-12-19 00:26:00,30.5,26.5,30.28,WSW,249,3.0,5.0,85,0.00,,---,0.00,0.00,VWS V14.00,2014-12-19 05:26:00,
2014-12-19 00:31:00,30.4,26.4,30.27,West,263,2.0,8.0,85,0.00,,---,0.00,0.00,VWS V14.00,2014-12-19 05:31:00,
2014-12-19 00:36:00,30.4,26.4,30.27,WNW,301,0.0,8.0,85,0.00,,---,0.00,0.00,VWS V14.00,2014-12-19 05:36:00,
2014-12-19 00:41:00,30.4,26.4,30.27,WNW,285,0.0,8.0,85,0.00,,---,0.00,0.00,VWS V14.00,2014-12-19 05:41:00,
2014-12-19 00:46:00,30.4,26.4,30.27,WSW,256,0.0,8.0,85,0.00,,---,0.00,0.00,VWS V14.00,2014-12-19 05:46:00,
2014-12-19 00:51:00,30.3,26.6,30.27,West,265,5.0,7.0,86,0.00,,---,0.00,0.00,VWS V14.00,2014-12-19 05:51:00,
2014-12-19 00:56:00,30.3,26.6,30.27,West,262,0.0,10.0,86,0.00,,---,0.00,0.00,VWS V14.00,2014-12-19 05:56:00,
2014-12-19 01:01:00,30.3,26.6,30.27,West,281,1.0,8.0,86,0.00,,---,0.00,0.00,VWS V14.00,2014-12-19 06:01:00,
2014-12-19 01:06:00,30.3,26.6,30.27,WNW,288,1.0,4.0,86,0.00,,---,0.00,0.00,VWS V14.00,2014-12-19 06:06:00,
2014-12-19 01:11:00,30.3,26.6,30.27,West,269,0.0,3.0,86,0.00,,---,0.00,0.00,VWS V14.00,2014-12-19 06:11:00,
2014-12-19 01:16:00,30.3,26.6,30.27,WNW,294,0.0,5.0,86,0.00,,---,0.00,0.00,VWS V14.00,2014-12-19 06:16:00,
2014-12-19 01:21:00,30.3,26.6,30.27,WSW,242,0.0,4.0,86,0.00,,---,0.00,0.00,VWS V14.00,2014-12-19 06:21:00,
2014-12-19 01:26:00,30.3,26.6,30.27,West,279,0.0,7.0,86,0.00,,---,0.00,0.00,VWS V14.00,2014-12-19 06:26:00,
2014-12-19 01:31:00,30.3,26.6,30.27,West,262,4.0,5.0,86,0.00,,---,0.00,0.00,VWS V14.00,2014-12-19 06:31:00,
2014-12-19 01:36:00,30.3,26.6,30.27,WNW,286,0.0,4.0,86,0.00,,---,0.00,0.00,VWS V14.00,2014-12-19 06:36:00,
2014-12-19 01:41:00,30.3,26.6,30.27,WNW,283,2.0,6.0,86,0.00,,---,0.00,0.00,VWS V14.00,2014-12-19 06:41:00,
2014-12-19 01:46:00,30.3,26.6,30.27,WNW,286,0.0,4.0,86,0.00,,---,0.00,0.00,VWS V14.00,2014-12-19 06:46:00,
2014-12-19 01:51:00,30.3,26.6,30.28,West,271,2.0,6.0,86,0.00,,---,0.00,0.00,VWS V14.00,2014-12-19 06:51:00,
2014-12-19 01:56:00,30.3,26.6,30.28,West,281,0.0,4.0,86,0.00,,---,0.00,0.00,VWS V14.00,2014-12-19 06:56:00,
2014-12-19 02:01:00,30.4,26.7,30.28,WNW,294,0.0,6.0,86,0.00,,---,0.00,0.00,VWS V14.00,2014-12-19 07:01:00,
2014-12-19 02:06:00,30.3,26.6,30.27,WNW,295,0.0,4.0,86,0.00,,---,0.00,0.00,VWS V14.00,2014-12-19 07:06:00,
2014-12-19 02:11:00,30.3,26.6,30.27,WNW,290,2.0,5.0,86,0.00,,---,0.00,0.00,VWS V14.00,2014-12-19 07:11:00,
2014-12-19 02:16:00,30.3,26.6,30.28,WNW,289,0.0,5.0,86,0.00,,---,0.00,0.00,VWS V14.00,2014-12-19 07:16:00,
2014-12-19 02:21:00,30.3,26.6,30.28,West,266,0.0,4.0,86,0.00,,---,0.00,0.00,VWS V14.00,2014-12-19 07:21:00,
2014-12-19 02:26:00,30.3,26.6,30.28,West,265,3.0,4.0,86,0.00,,---,0.00,0.00,VWS V14.00,2014-12-19 07:26:00,
2014-12-19 02:31:00,30.3,26.6,30.28,West,265,0.0,4.0,86,0.00,,---,0.00,0.00,VWS V14.00,2014-12-19 07:31:00,
2014-12-19 02:36:00,30.3,26.6,30.28,WNW,290,1.0,5.0,86,0.00,,---,0.00,0.00,VWS V14.00,2014-12-19 07:36:00,
2014-12-19 02:41:00,30.3,26.6,30.28,WNW,294,0.0,4.0,86,0.00,,---,0.00,0.00,VWS V14.00,2014-12-19 07:41:00,
2014-12-19 02:46:00,30.3,26.6,30.29,West,281,1.0,5.0,86,0.00,,---,0.00,0.00,VWS V14.00,2014-12-19 07:46:00,
2014-12-19 02:51:00,30.3,26.6,30.29,WNW,283,2.0,3.0,86,0.00,,---,0.00,0.00,VWS V14.00,2014-12-19 07:51:00,
2014-12-19 02:56:00,30.3,26.6,30.28,WNW,297,2.0,7.0,86,0.00,,---,0.00,0.00,VWS V14.00,2014-12-19 07:56:00,
2014-12-19 03:01:00,30.3,26.6,30.28,WNW,286,0.0,6.0,86,0.00,,---,0.00,0.00,VWS V14.00,2014-12-19 08:01:00,
2014-12-19 03:06:00,30.3,26.6,30.29,WNW,286,1.0,5.0,86,0.00,,---,0.00,0.00,VWS V14.00,2014-12-19 08:06:00,
2014-12-19 03:11:00,30.3,26.6,30.29,West,263,2.0,5.0,86,0.00,,---,0.00,0.00,VWS V14.00,2014-12-19 08:11:00,
2014-12-19 03:16:00,30.3,26.6,30.29,WSW,255,0.0,6.0,86,0.00,,---,0.00,0.00,VWS V14.00,2014-12-19 08:16:00,
2014-12-19 03:21:00,30.3,26.6,30.29,West,280,0.0,3.0,86,0.00,,---,0.00,0.00,VWS V14.00,2014-12-19 08:21:00,
2014-12-19 03:26:00,30.3,26.6,30.29,West,273,0.0,4.0,86,0.00,,---,0.00,0.00,VWS V14.00,2014-12-19 08:26:00,
2014-12-19 03:31:00,30.3,26.3,30.29,West,274,0.0,4.0,85,0.00,,---,0.00,0.00,VWS V14.00,2014-12-19 08:31:00,
2014-12-19 03:36:00,30.4,26.7,30.29,West,274,0.0,2.0,86,0.00,,---,0.00,0.00,VWS V14.00,2014-12-19 08:36:00,
2014-12-19 03:41:00,30.3,26.6,30.29,SW,236,0.0,5.0,86,0.00,,---,0.00,0.00,VWS V14.00,2014-12-19 08:41:00,
2014-12-19 03:46:00,30.3,26.3,30.29,West,277,0.0,4.0,85,0.00,,---,0.00,0.00,VWS V14.00,2014-12-19 08:46:00,
2014-12-19 03:51:00,30.4,26.4,30.29,WSW,248,2.0,6.0,85,0.00,,---,0.00,0.00,VWS V14.00,2014-12-19 08:51:00,
2014-12-19 03:56:00,30.3,26.3,30.29,West,275,2.0,3.0,85,0.00,,---,0.00,0.00,VWS V14.00,2014-12-19 08:56:00,
2014-12-19 04:01:00,30.3,26.6,30.29,WNW,285,0.0,4.0,86,0.00,,---,0.00,0.00,VWS V14.00,2014-12-19 09:01:00,
2014-12-19 04:06:00,30.3,26.6,30.29,WNW,291,2.0,5.0,86,0.00,,---,0.00,0.00,VWS V14.00,2014-12-19 09:06:00,
2014-12-19 04:11:00,30.3,26.6,30.29,West,263,0.0,3.0,86,0.00,,---,0.00,0.00,VWS V14.00,2014-12-19 09:11:00,
2014-12-19 04:16:00,30.3,26.6,30.29,SW,235,2.0,4.0,86,0.00,,---,0.00,0.00,VWS V14.00,2014-12-19 09:16:00,
2014-12-19 04:21:00,30.3,26.6,30.29,West,262,2.0,5.0,86,0.00,,---,0.00,0.00,VWS V14.00,2014-12-19 09:21:00,
2014-12-19 04:26:00,30.3,26.6,30.29,West,261,0.0,3.0,86,0.00,,---,0.00,0.00,VWS V14.00,2014-12-19 09:26:00,
2014-12-19 04:31:00,30.2,26.5,30.29,WSW,258,2.0,5.0,86,0.00,,---,0.00,0.00,VWS V14.00,2014-12-19 09:31:00,
2014-12-19 04:36:00,30.3,26.6,30.29,WSW,258,0.0,4.0,86,0.00,,---,0.00,0.00,VWS V14.00,2014-12-19 09:36:00,
2014-12-19 04:41:00,30.2,26.5,30.29,WNW,296,0.0,1.0,86,0.00,,---,0.00,0.00,VWS V14.00,2014-12-19 09:41:00,
2014-12-19 04:46:00,30.2,26.5,30.29,West,263,1.0,4.0,86,0.00,,---,0.00,0.00,VWS V14.00,2014-12-19 09:46:00,
2014-12-19 04:51:00,30.2,26.5,30.29,West,281,0.0,4.0,86,0.00,,---,0.00,0.00,VWS V14.00,2014-12-19 09:51:00,
2014-12-19 04:56:00,30.2,26.5,30.29,West,265,1.0,3.0,86,0.00,,---,0.00,0.00,VWS V14.00,2014-12-19 09:56:00,
2014-12-19 05:00:00,30.2,26.5,30.29,WSW,257,0.0,3.0,86,0.00,,---,0.00,0.00,VWS V14.00,2014-12-19 10:00:00,
2014-12-19 05:05:00,30.2,26.5,30.29,West,268,0.0,3.0,86,0.00,,---,0.00,0.00,VWS V14.00,2014-12-19 10:05:00,
2014-12-19 05:10:00,30.2,26.5,30.29,West,268,0.0,0.0,86,0.00,,---,0.00,0.00,VWS V14.00,2014-12-19 10:10:00,
2014-12-19 05:15:00,30.2,26.5,30.29,West,268,0.0,0.0,86,0.00,,---,0.00,0.00,VWS V14.00,2014-12-19 10:15:00,
2014-12-19 05:20:00,30.2,26.5,30.29,WNW,302,0.0,3.0,86,0.00,,---,0.00,0.00,VWS V14.00,2014-12-19 10:20:00,
2014-12-19 05:25:00,30.2,26.5,30.29,West,279,0.0,3.0,86,0.00,,---,0.00,0.00,VWS V14.00,2014-12-19 10:25:00,
2014-12-19 05:30:00,30.2,26.5,30.30,WNW,295,0.0,5.0,86,0.00,,---,0.00,0.00,VWS V14.00,2014-12-19 10:30:00,
2014-12-19 05:35:00,30.2,26.5,30.30,WNW,284,0.0,3.0,86,0.00,,---,0.00,0.00,VWS V14.00,2014-12-19 10:35:00,
2014-12-19 05:40:00,30.2,26.5,30.30,WNW,290,2.0,5.0,86,0.00,,---,0.00,0.00,VWS V14.00,2014-12-19 10:40:00,
2014-12-19 05:45:00,30.2,26.5,30.30,WNW,296,4.0,4.0,86,0.00,,---,0.00,0.00,VWS V14.00,2014-12-19 10:45:00,
2014-12-19 05:50:00,30.2,26.5,30.30,WNW,289,0.0,6.0,86,0.00,,---,0.00,0.00,VWS V14.00,2014-12-19 10:50:00,
2014-12-19 05:55:00,30.2,26.5,30.30,WNW,289,0.0,0.0,86,0.00,,---,0.00,0.00,VWS V14.00,2014-12-19 10:55:00,
2014-12-19 06:00:00,30.2,26.5,30.30,West,271,0.0,3.0,86,0.00,,---,0.00,0.00,VWS V14.00,2014-12-19 11:00:00,
2014-12-19 06:05:00,30.2,26.5,30.30,West,277,0.0,5.0,86,0.00,,---,0.00,0.00,VWS V14.00,2014-12-19 11:05:00,
2014-12-19 06:10:00,30.1,26.4,30.30,WNW,295,0.0,5.0,86,0.00,,---,0.00,0.00,VWS V14.00,2014-12-19 11:10:00,
2014-12-19 06:15:00,30.1,26.4,30.30,WNW,286,0.0,2.0,86,0.00,,---,0.00,0.00,VWS V14.00,2014-12-19 11:15:00,
2014-12-19 06:20:00,30.1,26.4,30.30,WNW,286,0.0,0.0,86,0.00,,---,0.00,0.00,VWS V14.00,2014-12-19 11:20:00,
2014-12-19 06:25:00,30.1,26.4,30.30,WNW,286,0.0,0.0,86,0.00,,---,0.00,0.00,VWS V14.00,2014-12-19 11:25:00,
2014-12-19 06:30:00,30.2,26.5,30.31,WNW,286,0.0,0.0,86,0.00,,---,0.00,0.00,VWS V14.00,2014-12-19 11:30:00,
2014-12-19 06:35:00,30.1,26.4,30.31,WNW,287,1.0,3.0,86,0.00,,---,0.00,0.00,VWS V14.00,2014-12-19 11:35:00,
2014-12-19 06:40:00,30.1,26.4,30.31,WNW,287,0.0,0.0,86,0.00,,---,0.00,0.00,VWS V14.00,2014-12-19 11:40:00,
2014-12-19 06:45:00,30.1,26.4,30.31,WNW,291,0.0,0.0,86,0.00,,---,0.00,0.00,VWS V14.00,2014-12-19 11:45:00,
2014-12-19 06:50:00,30.2,26.5,30.32,West,280,0.0,0.0,86,0.00,,---,0.00,0.00,VWS V14.00,2014-12-19 11:50:00,
2014-12-19 06:55:00,30.1,26.4,30.31,West,280,0.0,0.0,86,0.00,,---,0.00,0.00,VWS V14.00,2014-12-19 11:55:00,
2014-12-19 07:00:00,30.1,26.4,30.32,West,280,0.0,2.0,86,0.00,,---,0.00,0.00,VWS V14.00,2014-12-19 12:00:00,
2014-12-19 07:05:00,30.2,26.5,30.32,West,280,0.0,1.0,86,0.00,,---,0.00,0.00,VWS V14.00,2014-12-19 12:05:00,
2014-12-19 07:10:00,30.2,26.5,30.32,WNW,296,0.0,5.0,86,0.00,,---,0.00,0.00,VWS V14.00,2014-12-19 12:10:00,
2014-12-19 07:15:00,30.2,26.5,30.32,WNW,286,0.0,1.0,86,0.00,,---,0.00,0.00,VWS V14.00,2014-12-19 12:15:00,
2014-12-19 07:20:00,30.2,26.5,30.33,WNW,286,0.0,0.0,86,0.00,,---,0.00,0.00,VWS V14.00,2014-12-19 12:20:00,
2014-12-19 07:25:00,30.2,26.5,30.33,WNW,286,0.0,0.0,86,0.00,,---,0.00,0.00,VWS V14.00,2014-12-19 12:25:00,
2014-12-19 07:30:00,30.2,26.5,30.33,WNW,286,0.0,0.0,86,0.00,,---,0.00,0.00,VWS V14.00,2014-12-19 12:30:00,
2014-12-19 07:35:00,30.2,26.5,30.33,WNW,286,0.0,0.0,86,0.00,,---,0.00,0.00,VWS V14.00,2014-12-19 12:35:00,
2014-12-19 07:40:00,30.2,26.8,30.33,WNW,286,0.0,0.0,87,0.00,,---,0.00,0.00,VWS V14.00,2014-12-19 12:40:00,
2014-12-19 07:45:00,30.2,26.5,30.33,WNW,286,0.0,0.0,86,0.00,,---,0.00,0.00,VWS V14.00,2014-12-19 12:45:00,
2014-12-19 07:50:00,30.2,26.5,30.34,West,260,0.0,4.0,86,0.00,,---,0.00,0.00,VWS V14.00,2014-12-19 12:50:00,
2014-12-19 07:55:00,30.2,26.5,30.34,West,264,0.0,0.0,86,0.00,,---,0.00,0.00,VWS V14.00,2014-12-19 12:55:00,
2014-12-19 08:00:00,30.2,26.5,30.34,West,271,0.0,3.0,86,0.00,,---,0.00,0.00,VWS V14.00,2014-12-19 13:00:00,
2014-12-19 08:05:00,30.3,26.6,30.33,West,270,0.0,0.0,86,0.00,,---,0.00,0.00,VWS V14.00,2014-12-19 13:05:00,
2014-12-19 08:10:00,30.3,26.6,30.33,West,271,0.0,0.0,86,0.00,,---,0.00,0.00,VWS V14.00,2014-12-19 13:10:00,
2014-12-19 08:15:00,30.3,26.6,30.33,West,270,0.0,0.0,86,0.00,,---,0.00,0.00,VWS V14.00,2014-12-19 13:15:00,
2014-12-19 08:20:00,30.3,26.6,30.34,West,271,0.0,0.0,86,0.00,,---,0.00,0.00,VWS V14.00,2014-12-19 13:20:00,
2014-12-19 08:25:00,30.3,26.6,30.33,West,271,0.0,0.0,86,0.00,,---,0.00,5.00,VWS V14.00,2014-12-19 13:25:00,
2014-12-19 08:30:00,30.3,26.6,30.33,West,271,0.0,0.0,86,0.00,,---,0.00,7.00,VWS V14.00,2014-12-19 13:30:00,
2014-12-19 08:35:00,30.3,26.6,30.33,West,271,0.0,0.0,86,0.00,,---,0.00,9.00,VWS V14.00,2014-12-19 13:35:00,
2014-12-19 08:40:00,30.3,26.6,30.34,West,270,0.0,0.0,86,0.00,,---,0.00,9.00,VWS V14.00,2014-12-19 13:40:00,
2014-12-19 08:45:00,30.4,26.7,30.34,West,271,0.0,0.0,86,0.00,,---,0.00,9.00,VWS V14.00,2014-12-19 13:45:00,
2014-12-19 08:50:00,30.4,26.7,30.34,West,270,0.0,0.0,86,0.00,,---,0.00,7.00,VWS V14.00,2014-12-19 13:50:00,
2014-12-19 08:55:00,30.4,26.7,30.34,North,10,0.0,5.0,86,0.00,,---,0.00,5.00,VWS V14.00,2014-12-19 13:55:00,
2014-12-19 09:00:00,30.2,26.8,30.35,North,10,0.0,5.0,87,0.00,,---,0.00,5.00,VWS V14.00,2014-12-19 14:00:00,
2014-12-19 09:05:00,30.2,26.8,30.35,North,10,0.0,0.0,87,0.00,,---,0.00,7.00,VWS V14.00,2014-12-19 14:05:00,
2014-12-19 09:10:00,30.1,26.7,30.35,North,10,0.0,0.0,87,0.00,,---,0.00,7.00,VWS V14.00,2014-12-19 14:10:00,
2014-12-19 09:15:00,30.0,26.6,30.35,North,10,0.0,0.0,87,0.00,,---,0.00,9.00,VWS V14.00,2014-12-19 14:15:00,
2014-12-19 09:20:00,29.8,26.4,30.35,NE,49,0.0,0.0,87,0.00,,---,0.00,11.00,VWS V14.00,2014-12-19 14:20:00,
2014-12-19 09:25:00,29.7,26.3,30.35,NE,49,0.0,0.0,87,0.00,,---,0.00,11.00,VWS V14.00,2014-12-19 14:25:00,
2014-12-19 09:30:00,29.7,26.6,30.35,NE,49,0.0,0.0,88,0.00,,---,0.00,12.00,VWS V14.00,2014-12-19 14:30:00,
2014-12-19 09:35:00,29.6,26.5,30.35,NE,49,0.0,0.0,88,0.00,,---,0.00,12.00,VWS V14.00,2014-12-19 14:35:00,
2014-12-19 09:40:00,29.5,26.4,30.35,NE,49,0.0,0.0,88,0.00,,---,0.00,14.00,VWS V14.00,2014-12-19 14:40:00,
2014-12-19 09:45:00,29.4,26.3,30.35,NE,49,0.0,0.0,88,0.00,,---,0.00,14.00,VWS V14.00,2014-12-19 14:45:00,
2014-12-19 09:50:00,29.3,26.2,30.34,NE,49,0.0,0.0,88,0.00,,---,0.00,16.00,VWS V14.00,2014-12-19 14:50:00,
2014-12-19 09:55:00,29.3,26.5,30.34,NNE,21,5.0,5.0,89,0.00,,---,0.00,16.00,VWS V14.00,2014-12-19 14:55:00,
2014-12-19 10:00:00,29.3,26.5,30.34,NNE,21,3.0,6.0,89,0.00,,---,0.00,18.00,VWS V14.00,2014-12-19 15:00:00,
2014-12-19 10:05:00,29.3,26.5,30.34,NNE,21,0.0,0.0,89,0.00,,---,0.00,19.00,VWS V14.00,2014-12-19 15:05:00,
2014-12-19 10:10:00,29.4,26.3,30.35,ENE,65,2.0,4.0,88,0.00,,---,0.00,21.00,VWS V14.00,2014-12-19 15:10:00,
2014-12-19 10:15:00,29.3,26.2,30.35,ENE,63,0.0,4.0,88,0.00,,---,0.00,23.00,VWS V14.00,2014-12-19 15:15:00,
2014-12-19 10:20:00,29.2,26.1,30.35,ENE,63,0.0,0.0,88,0.00,,---,0.00,23.00,VWS V14.00,2014-12-19 15:20:00,
2014-12-19 10:25:00,29.3,26.2,30.35,ENE,74,0.0,3.0,88,0.00,,---,0.00,25.00,VWS V14.00,2014-12-19 15:25:00,
2014-12-19 10:30:00,29.2,26.1,30.35,ENE,74,3.0,3.0,88,0.00,,---,0.00,30.00,VWS V14.00,2014-12-19 15:30:00,
2014-12-19 10:35:00,29.2,26.1,30.35,ENE,74,0.0,0.0,88,0.00,,---,0.00,33.00,VWS V14.00,2014-12-19 15:35:00,
2014-12-19 10:40:00,29.2,26.1,30.35,ENE,74,0.0,0.0,88,0.00,,---,0.00,32.00,VWS V14.00,2014-12-19 15:40:00,
2014-12-19 10:45:00,29.2,26.1,30.35,ENE,74,0.0,0.0,88,0.00,,---,0.00,35.00,VWS V14.00,2014-12-19 15:45:00,
2014-12-19 10:50:00,29.2,26.1,30.35,ENE,74,0.0,0.0,88,0.00,,---,0.00,37.00,VWS V14.00,2014-12-19 15:50:00,
2014-12-19 10:55:00,29.3,25.9,30.35,ENE,71,0.0,0.0,87,0.00,,---,0.00,37.00,VWS V14.00,2014-12-19 15:55:00,
2014-12-19 11:00:00,29.3,25.9,30.35,ENE,70,0.0,0.0,87,0.00,,---,0.00,40.00,VWS V14.00,2014-12-19 16:00:00,
2014-12-19 11:05:00,29.2,25.8,30.36,ENE,70,0.0,0.0,87,0.00,,---,0.00,42.00,VWS V14.00,2014-12-19 16:05:00,
2014-12-19 11:10:00,29.3,25.9,30.36,NNE,24,0.0,4.0,87,0.00,,---,0.00,44.00,VWS V14.00,2014-12-19 16:10:00,
2014-12-19 11:15:00,29.5,26.1,30.36,NNE,24,0.0,0.0,87,0.00,,---,0.00,46.00,VWS V14.00,2014-12-19 16:15:00,
2014-12-19 11:20:00,29.5,26.1,30.36,NNE,24,0.0,0.0,87,0.00,,---,0.00,49.00,VWS V14.00,2014-12-19 16:20:00,
2014-12-19 11:25:00,29.4,25.7,30.36,NNE,24,0.0,0.0,86,0.00,,---,0.00,54.00,VWS V14.00,2014-12-19 16:25:00,
2014-12-19 11:30:00,29.4,25.7,30.36,NNE,24,0.0,0.0,86,0.00,,---,0.00,60.00,VWS V14.00,2014-12-19 16:30:00,
2014-12-19 11:35:00,29.6,25.9,30.36,NNE,24,0.0,0.0,86,0.00,,---,0.00,67.00,VWS V14.00,2014-12-19 16:35:00,
2014-12-19 11:40:00,29.6,25.9,30.36,NNE,24,0.0,3.0,86,0.00,,---,0.00,90.00,VWS V14.00,2014-12-19 16:40:00,
2014-12-19 11:45:00,29.5,25.6,30.36,NNE,24,0.0,0.0,85,0.00,,---,0.00,105.00,VWS V14.00,2014-12-19 16:45:00,
2014-12-19 11:50:00,29.5,25.6,30.36,NNE,24,0.0,0.0,85,0.00,,---,0.00,95.00,VWS V14.00,2014-12-19 16:50:00,
2014-12-19 11:55:00,29.6,25.6,30.36,NNE,24,0.0,0.0,85,0.00,,---,0.00,88.00,VWS V14.00,2014-12-19 16:55:00,
2014-12-19 12:00:00,29.6,25.6,30.35,NNE,24,0.0,0.0,85,0.00,,---,0.00,109.00,VWS V14.00,2014-12-19 17:00:00,
2014-12-19 12:05:00,29.5,25.6,30.35,NNE,24,0.0,0.0,85,0.00,,---,0.00,121.00,VWS V14.00,2014-12-19 17:05:00,
2014-12-19 12:10:00,29.5,25.6,30.35,NNE,24,0.0,0.0,85,0.00,,---,0.00,113.00,VWS V14.00,2014-12-19 17:10:00,
2014-12-19 12:15:00,29.6,25.9,30.35,NNE,24,0.0,0.0,86,0.00,,---,0.00,116.00,VWS V14.00,2014-12-19 17:15:00,
2014-12-19 12:20:00,29.6,25.9,30.35,NNE,24,0.0,0.0,86,0.00,,---,0.00,116.00,VWS V14.00,2014-12-19 17:20:00,
2014-12-19 12:25:00,29.5,25.8,30.34,NNE,24,0.0,0.0,86,0.00,,---,0.00,116.00,VWS V14.00,2014-12-19 17:25:00,
2014-12-19 12:30:00,29.7,26.0,30.34,NNE,24,0.0,0.0,86,0.00,,---,0.00,111.00,VWS V14.00,2014-12-19 17:30:00,
2014-12-19 12:35:00,29.8,26.1,30.34,NNE,24,0.0,0.0,86,0.00,,---,0.00,114.00,VWS V14.00,2014-12-19 17:35:00,
2014-12-19 12:40:00,29.8,26.1,30.34,NNE,24,0.0,0.0,86,0.00,,---,0.00,121.00,VWS V14.00,2014-12-19 17:40:00,
2014-12-19 12:45:00,29.8,25.9,30.34,NNE,24,0.0,0.0,85,0.00,,---,0.00,113.00,VWS V14.00,2014-12-19 17:45:00,
2014-12-19 12:50:00,29.7,26.0,30.34,NNE,24,0.0,0.0,86,0.00,,---,0.00,107.00,VWS V14.00,2014-12-19 17:50:00,
2014-12-19 12:55:00,29.8,26.1,30.34,NNE,24,0.0,0.0,86,0.00,,---,0.00,102.00,VWS V14.00,2014-12-19 17:55:00,
2014-12-19 13:00:00,29.8,26.1,30.34,NNE,24,0.0,0.0,86,0.00,,---,0.00,107.00,VWS V14.00,2014-12-19 18:00:00,
2014-12-19 13:05:00,29.8,26.1,30.34,NNE,24,0.0,0.0,86,0.00,,---,0.00,114.00,VWS V14.00,2014-12-19 18:05:00,
2014-12-19 13:10:00,29.7,26.0,30.34,NNE,24,0.0,0.0,86,0.00,,---,0.00,113.00,VWS V14.00,2014-12-19 18:10:00,
2014-12-19 13:15:00,29.8,26.1,30.34,NNE,24,0.0,0.0,86,0.00,,---,0.00,100.00,VWS V14.00,2014-12-19 18:15:00,
2014-12-19 13:20:00,29.8,26.1,30.34,NNE,24,0.0,0.0,86,0.00,,---,0.00,105.00,VWS V14.00,2014-12-19 18:20:00,
2014-12-19 13:25:00,29.7,25.8,30.34,NNE,24,0.0,0.0,85,0.00,,---,0.00,100.00,VWS V14.00,2014-12-19 18:25:00,
2014-12-19 13:30:00,29.6,25.6,30.34,NNE,24,0.0,0.0,85,0.00,,---,0.00,98.00,VWS V14.00,2014-12-19 18:30:00,
2014-12-19 13:35:00,29.6,25.6,30.34,NNE,24,0.0,0.0,85,0.00,,---,0.00,95.00,VWS V14.00,2014-12-19 18:35:00,
2014-12-19 13:40:00,29.7,25.8,30.34,NE,53,0.0,0.0,85,0.00,,---,0.00,100.00,VWS V14.00,2014-12-19 18:40:00,
2014-12-19 13:45:00,29.7,25.8,30.34,NE,53,0.0,0.0,85,0.00,,---,0.00,97.00,VWS V14.00,2014-12-19 18:45:00,
2014-12-19 13:50:00,29.8,26.1,30.34,NE,53,0.0,0.0,86,0.00,,---,0.00,77.00,VWS V14.00,2014-12-19 18:50:00,
2014-12-19 13:55:00,29.8,25.9,30.33,NE,53,0.0,0.0,85,0.00,,---,0.00,69.00,VWS V14.00,2014-12-19 18:55:00,
2014-12-19 14:00:00,29.7,25.8,30.33,NE,53,0.0,0.0,85,0.00,,---,0.00,67.00,VWS V14.00,2014-12-19 19:00:00,
2014-12-19 14:05:00,29.7,25.8,30.33,NE,53,0.0,0.0,85,0.00,,---,0.00,63.00,VWS V14.00,2014-12-19 19:05:00,
2014-12-19 14:10:00,29.8,26.1,30.33,NE,53,0.0,0.0,86,0.00,,---,0.00,63.00,VWS V14.00,2014-12-19 19:10:00,
2014-12-19 14:15:00,29.8,25.9,30.33,NE,53,0.0,0.0,85,0.00,,---,0.00,63.00,VWS V14.00,2014-12-19 19:15:00,
2014-12-19 14:20:00,29.7,25.8,30.33,NE,53,0.0,0.0,85,0.00,,---,0.00,63.00,VWS V14.00,2014-12-19 19:20:00,
2014-12-19 14:25:00,29.7,26.0,30.33,NE,53,0.0,0.0,86,0.00,,---,0.00,67.00,VWS V14.00,2014-12-19 19:25:00,
2014-12-19 14:29:00,29.8,26.1,30.33,NE,53,0.0,0.0,86,0.00,,---,0.00,65.00,VWS V14.00,2014-12-19 19:29:00,
2014-12-19 14:35:00,29.8,25.9,30.33,NE,53,0.0,0.0,85,0.00,,---,0.00,63.00,VWS V14.00,2014-12-19 19:35:00,
2014-12-19 14:39:00,29.8,26.1,30.33,NNE,14,2.0,3.0,86,0.00,,---,0.00,54.00,VWS V14.00,2014-12-19 19:39:00,
2014-12-19 14:44:00,29.7,25.8,30.33,NNE,14,0.0,0.0,85,0.00,,---,0.00,49.00,VWS V14.00,2014-12-19 19:44:00,
2014-12-19 14:49:00,29.8,26.1,30.33,NNE,14,0.0,0.0,86,0.00,,---,0.00,51.00,VWS V14.00,2014-12-19 19:49:00,
2014-12-19 14:54:00,29.7,25.8,30.34,NNE,14,0.0,0.0,85,0.00,,---,0.00,51.00,VWS V14.00,2014-12-19 19:54:00,
2014-12-19 14:59:00,29.7,25.8,30.34,NNE,14,0.0,0.0,85,0.00,,---,0.00,49.00,VWS V14.00,2014-12-19 19:59:00,
2014-12-19 15:04:00,29.6,25.6,30.34,NNE,14,0.0,0.0,85,0.00,,---,0.00,47.00,VWS V14.00,2014-12-19 20:04:00,
2014-12-19 15:09:00,29.6,25.6,30.34,NNE,14,0.0,0.0,85,0.00,,---,0.00,46.00,VWS V14.00,2014-12-19 20:09:00,
2014-12-19 15:14:00,29.7,25.8,30.34,NNE,14,0.0,0.0,85,0.00,,---,0.00,39.00,VWS V14.00,2014-12-19 20:14:00,
2014-12-19 15:19:00,29.7,25.8,30.35,NNE,14,0.0,0.0,85,0.00,,---,0.00,33.00,VWS V14.00,2014-12-19 20:19:00,
2014-12-19 15:24:00,29.7,25.5,30.35,NNE,14,0.0,0.0,84,0.00,,---,0.00,32.00,VWS V14.00,2014-12-19 20:24:00,
2014-12-19 15:29:00,29.7,25.5,30.35,NNE,14,0.0,0.0,84,0.00,,---,0.00,32.00,VWS V14.00,2014-12-19 20:29:00,
2014-12-19 15:34:00,29.8,25.6,30.35,NNE,14,0.0,0.0,84,0.00,,---,0.00,28.00,VWS V14.00,2014-12-19 20:34:00,
2014-12-19 15:39:00,29.8,25.6,30.35,NNE,14,0.0,0.0,84,0.00,,---,0.00,26.00,VWS V14.00,2014-12-19 20:39:00,
2014-12-19 15:44:00,29.8,25.6,30.35,NNE,14,0.0,0.0,84,0.00,,---,0.00,26.00,VWS V14.00,2014-12-19 20:44:00,
2014-12-19 15:49:00,29.7,25.5,30.35,NNE,14,0.0,0.0,84,0.00,,---,0.00,26.00,VWS V14.00,2014-12-19 20:49:00,
2014-12-19 15:54:00,29.7,25.5,30.35,NNE,14,0.0,0.0,84,0.00,,---,0.00,26.00,VWS V14.00,2014-12-19 20:54:00,
2014-12-19 15:59:00,29.8,25.6,30.35,NNE,14,0.0,0.0,84,0.00,,---,0.00,23.00,VWS V14.00,2014-12-19 20:59:00,
2014-12-19 16:04:00,29.8,25.6,30.35,NNE,14,0.0,0.0,84,0.00,,---,0.00,19.00,VWS V14.00,2014-12-19 21:04:00,
2014-12-19 16:09:00,29.8,25.6,30.35,NNE,14,0.0,0.0,84,0.00,,---,0.00,19.00,VWS V14.00,2014-12-19 21:09:00,
2014-12-19 16:14:00,29.7,25.5,30.35,NNE,14,0.0,0.0,84,0.00,,---,0.00,16.00,VWS V14.00,2014-12-19 21:14:00,
2014-12-19 16:19:00,29.7,25.5,30.35,NNE,14,0.0,0.0,84,0.00,,---,0.00,14.00,VWS V14.00,2014-12-19 21:19:00,
2014-12-19 16:24:00,29.7,25.5,30.35,NNE,14,0.0,0.0,84,0.00,,---,0.00,12.00,VWS V14.00,2014-12-19 21:24:00,
2014-12-19 16:29:00,29.7,25.5,30.35,NNE,14,0.0,0.0,84,0.00,,---,0.00,11.00,VWS V14.00,2014-12-19 21:29:00,
2014-12-19 16:34:00,29.6,25.4,30.35,NNE,14,0.0,0.0,84,0.00,,---,0.00,9.00,VWS V14.00,2014-12-19 21:34:00,
2014-12-19 16:39:00,29.6,25.4,30.36,NNE,14,0.0,0.0,84,0.00,,---,0.00,7.00,VWS V14.00,2014-12-19 21:39:00,
2014-12-19 16:44:00,29.6,25.4,30.35,NNE,14,0.0,0.0,84,0.00,,---,0.00,5.00,VWS V14.00,2014-12-19 21:44:00,
2014-12-19 16:49:00,29.6,25.4,30.36,NNE,14,0.0,0.0,84,0.00,,---,0.00,0.00,VWS V14.00,2014-12-19 21:49:00,
2014-12-19 16:54:00,29.7,25.5,30.35,NNE,14,0.0,0.0,84,0.00,,---,0.00,0.00,VWS V14.00,2014-12-19 21:54:00,
2014-12-19 16:59:00,29.7,25.5,30.36,NNE,14,0.0,0.0,84,0.00,,---,0.00,0.00,VWS V14.00,2014-12-19 21:59:00,
2014-12-19 17:04:00,29.7,25.5,30.36,NNE,14,0.0,0.0,84,0.00,,---,0.00,0.00,VWS V14.00,2014-12-19 22:04:00,
2014-12-19 17:09:00,29.7,25.5,30.36,NNE,14,0.0,0.0,84,0.00,,---,0.00,0.00,VWS V14.00,2014-12-19 22:09:00,
2014-12-19 17:14:00,29.7,25.5,30.36,NNE,14,0.0,0.0,84,0.00,,---,0.00,0.00,VWS V14.00,2014-12-19 22:14:00,
2014-12-19 17:19:00,29.7,25.5,30.37,NNE,14,0.0,0.0,84,0.00,,---,0.00,0.00,VWS V14.00,2014-12-19 22:19:00,
2014-12-19 17:24:00,29.7,25.5,30.37,NNE,14,0.0,0.0,84,0.00,,---,0.00,0.00,VWS V14.00,2014-12-19 22:24:00,
2014-12-19 17:29:00,29.7,25.5,30.37,NNE,14,0.0,0.0,84,0.00,,---,0.00,0.00,VWS V14.00,2014-12-19 22:29:00,
2014-12-19 17:34:00,29.7,25.5,30.37,NNE,14,0.0,0.0,84,0.00,,---,0.00,0.00,VWS V14.00,2014-12-19 22:34:00,
2014-12-19 17:39:00,29.7,25.5,30.37,NNE,14,0.0,0.0,84,0.00,,---,0.00,0.00,VWS V14.00,2014-12-19 22:39:00,
2014-12-19 17:44:00,29.7,25.5,30.37,NNE,14,0.0,0.0,84,0.00,,---,0.00,0.00,VWS V14.00,2014-12-19 22:44:00,
2014-12-19 17:49:00,29.7,25.5,30.37,NNE,14,0.0,0.0,84,0.00,,---,0.00,0.00,VWS V14.00,2014-12-19 22:49:00,
2014-12-19 17:54:00,29.7,25.5,30.37,NNE,14,0.0,0.0,84,0.00,,---,0.00,0.00,VWS V14.00,2014-12-19 22:54:00,
2014-12-19 17:59:00,29.7,25.5,30.38,NNE,14,0.0,0.0,84,0.00,,---,0.00,0.00,VWS V14.00,2014-12-19 22:59:00,
2014-12-19 18:04:00,29.7,25.5,30.38,NNE,14,0.0,0.0,84,0.00,,---,0.00,0.00,VWS V14.00,2014-12-19 23:04:00,
2014-12-19 18:09:00,29.7,25.5,30.38,NNE,14,0.0,0.0,84,0.00,,---,0.00,0.00,VWS V14.00,2014-12-19 23:09:00,
2014-12-19 18:14:00,29.7,25.5,30.38,NNE,14,0.0,0.0,84,0.00,,---,0.00,0.00,VWS V14.00,2014-12-19 23:14:00,
2014-12-19 18:19:00,29.7,25.5,30.39,NNE,14,0.0,0.0,84,0.00,,---,0.00,0.00,VWS V14.00,2014-12-19 23:19:00,
2014-12-19 18:24:00,29.7,25.5,30.39,NNE,14,0.0,0.0,84,0.00,,---,0.00,0.00,VWS V14.00,2014-12-19 23:24:00,
2014-12-19 18:29:00,29.7,25.5,30.39,NNE,14,0.0,0.0,84,0.00,,---,0.00,0.00,VWS V14.00,2014-12-19 23:29:00,
2014-12-19 18:34:00,29.7,25.5,30.40,NNE,14,0.0,0.0,84,0.00,,---,0.00,0.00,VWS V14.00,2014-12-19 23:34:00,
2014-12-19 18:39:00,29.7,25.5,30.40,NNE,14,0.0,0.0,84,0.00,,---,0.00,0.00,VWS V14.00,2014-12-19 23:39:00,
2014-12-19 18:44:00,29.7,25.5,30.40,NNE,14,0.0,0.0,84,0.00,,---,0.00,0.00,VWS V14.00,2014-12-19 23:44:00,
2014-12-19 18:49:00,29.7,25.5,30.41,NNE,14,0.0,0.0,84,0.00,,---,0.00,0.00,VWS V14.00,2014-12-19 23:49:00,
2014-12-19 18:54:00,29.7,25.5,30.40,NNE,14,0.0,0.0,84,0.00,,---,0.00,0.00,VWS V14.00,2014-12-19 23:54:00,
2014-12-19 18:59:00,29.8,25.6,30.41,NNE,14,0.0,0.0,84,0.00,,---,0.00,0.00,VWS V14.00,2014-12-19 23:59:00,
2014-12-19 19:04:00,29.8,25.6,30.41,NNE,14,0.0,0.0,84,0.00,,---,0.00,0.00,VWS V14.00,2014-12-20 00:04:00,
2014-12-19 19:09:00,29.8,25.6,30.41,NNE,14,0.0,0.0,84,0.00,,---,0.00,0.00,VWS V14.00,2014-12-20 00:09:00,
2014-12-19 19:14:00,29.8,25.9,30.41,NNE,14,0.0,0.0,85,0.00,,---,0.00,0.00,VWS V14.00,2014-12-20 00:14:00,
2014-12-19 19:19:00,29.8,25.9,30.41,NNE,14,0.0,0.0,85,0.00,,---,0.00,0.00,VWS V14.00,2014-12-20 00:19:00,
2014-12-19 19:24:00,29.8,25.9,30.41,NNE,14,0.0,0.0,85,0.00,,---,0.00,0.00,VWS V14.00,2014-12-20 00:24:00,
2014-12-19 19:29:00,29.8,25.9,30.41,NNE,14,0.0,0.0,85,0.00,,---,0.00,0.00,VWS V14.00,2014-12-20 00:29:00,
2014-12-19 19:34:00,29.8,25.9,30.41,NNE,14,0.0,0.0,85,0.00,,---,0.00,0.00,VWS V14.00,2014-12-20 00:34:00,
2014-12-19 19:39:00,29.7,25.8,30.40,NNE,14,0.0,0.0,85,0.00,,---,0.00,0.00,VWS V14.00,2014-12-20 00:39:00,
2014-12-19 19:44:00,29.7,26.0,30.40,NNE,14,0.0,0.0,86,0.00,,---,0.00,0.00,VWS V14.00,2014-12-20 00:44:00,
2014-12-19 19:49:00,29.7,26.0,30.40,NNE,14,0.0,0.0,86,0.00,,---,0.00,0.00,VWS V14.00,2014-12-20 00:49:00,
2014-12-19 19:54:00,29.6,25.9,30.40,NNE,14,0.0,0.0,86,0.00,,---,0.00,0.00,VWS V14.00,2014-12-20 00:54:00,
2014-12-19 19:59:00,29.6,25.9,30.39,NNE,14,0.0,0.0,86,0.00,,---,0.00,0.00,VWS V14.00,2014-12-20 00:59:00,
2014-12-19 20:04:00,29.6,25.9,30.39,NNE,14,0.0,0.0,86,0.00,,---,0.00,0.00,VWS V14.00,2014-12-20 01:04:00,
2014-12-19 20:09:00,29.6,25.9,30.39,NNE,14,0.0,0.0,86,0.00,,---,0.00,0.00,VWS V14.00,2014-12-20 01:09:00,
2014-12-19 20:14:00,29.6,25.9,30.38,NNE,14,0.0,0.0,86,0.00,,---,0.00,0.00,VWS V14.00,2014-12-20 01:14:00,
2014-12-19 20:19:00,29.6,25.9,30.38,NNE,14,0.0,0.0,86,0.00,,---,0.00,0.00,VWS V14.00,2014-12-20 01:19:00,
2014-12-19 20:24:00,29.7,26.3,30.38,NNE,14,0.0,0.0,87,0.00,,---,0.00,0.00,VWS V14.00,2014-12-20 01:24:00,
2014-12-19 20:29:00,29.7,26.3,30.38,NNE,14,0.0,0.0,87,0.00,,---,0.00,0.00,VWS V14.00,2014-12-20 01:29:00,
2014-12-19 20:34:00,29.7,26.0,30.37,NNE,14,0.0,0.0,86,0.00,,---,0.00,0.00,VWS V14.00,2014-12-20 01:34:00,
2014-12-19 20:39:00,29.6,25.9,30.37,NNE,14,0.0,0.0,86,0.00,,---,0.00,0.00,VWS V14.00,2014-12-20 01:39:00,
2014-12-19 20:44:00,29.7,26.3,30.37,NNE,14,0.0,0.0,87,0.00,,---,0.00,0.00,VWS V14.00,2014-12-20 01:44:00,
2014-12-19 20:49:00,29.6,26.2,30.37,NNE,14,0.0,0.0,87,0.00,,---,0.00,0.00,VWS V14.00,2014-12-20 01:49:00,
2014-12-19 20:54:00,29.5,26.1,30.37,NNE,14,0.0,0.0,87,0.00,,---,0.00,0.00,VWS V14.00,2014-12-20 01:54:00,
2014-12-19 20:59:00,29.4,25.7,30.37,NNE,14,0.0,0.0,86,0.00,,---,0.00,0.00,VWS V14.00,2014-12-20 01:59:00,
2014-12-19 21:04:00,29.3,25.6,30.37,NNE,14,0.0,0.0,86,0.00,,---,0.00,0.00,VWS V14.00,2014-12-20 02:04:00,
2014-12-19 21:09:00,29.4,25.7,30.36,NE,47,0.0,0.0,86,0.00,,---,0.00,0.00,VWS V14.00,2014-12-20 02:09:00,
2014-12-19 21:14:00,29.4,26.0,30.37,NE,47,0.0,0.0,87,0.00,,---,0.00,0.00,VWS V14.00,2014-12-20 02:14:00,
2014-12-19 21:19:00,29.4,26.0,30.37,NE,47,0.0,0.0,87,0.00,,---,0.00,0.00,VWS V14.00,2014-12-20 02:19:00,
2014-12-19 21:24:00,29.4,25.7,30.37,NE,47,0.0,0.0,86,0.00,,---,0.00,0.00,VWS V14.00,2014-12-20 02:24:00,
2014-12-19 21:29:00,29.4,25.7,30.37,NE,47,0.0,0.0,86,0.00,,---,0.00,0.00,VWS V14.00,2014-12-20 02:29:00,
2014-12-19 21:34:00,29.4,25.7,30.37,NE,47,0.0,0.0,86,0.00,,---,0.00,0.00,VWS V14.00,2014-12-20 02:34:00,
2014-12-19 21:39:00,29.3,25.6,30.37,NE,47,0.0,0.0,86,0.00,,---,0.00,0.00,VWS V14.00,2014-12-20 02:39:00,
2014-12-19 21:44:00,29.3,25.6,30.37,NE,47,0.0,0.0,86,0.00,,---,0.00,0.00,VWS V14.00,2014-12-20 02:44:00,
2014-12-19 21:49:00,29.3,25.6,30.37,NE,47,0.0,0.0,86,0.00,,---,0.00,0.00,VWS V14.00,2014-12-20 02:49:00,
2014-12-19 21:54:00,29.3,25.6,30.37,NE,47,3.0,3.0,86,0.00,,---,0.00,0.00,VWS V14.00,2014-12-20 02:54:00,
2014-12-19 21:59:00,29.3,25.6,30.37,East,96,0.0,0.0,86,0.00,,---,0.00,0.00,VWS V14.00,2014-12-20 02:59:00,
2014-12-19 22:04:00,29.3,25.6,30.37,SE,136,2.0,3.0,86,0.00,,---,0.00,0.00,VWS V14.00,2014-12-20 03:04:00,
2014-12-19 22:09:00,29.2,25.5,30.37,SE,144,2.0,4.0,86,0.00,,---,0.00,0.00,VWS V14.00,2014-12-20 03:09:00,
2014-12-19 22:14:00,29.2,25.5,30.36,SE,134,0.0,4.0,86,0.00,,---,0.00,0.00,VWS V14.00,2014-12-20 03:14:00,
2014-12-19 22:19:00,29.3,25.6,30.37,SE,143,3.0,4.0,86,0.00,,---,0.00,0.00,VWS V14.00,2014-12-20 03:19:00,